DG8RAD-1 Weather Reports


time (UTC)temp
F
wind
direction
speed
knots
gust
knots
rain 1hr
in
rain 24hr
in
rain mn
in
humidity
%
barometer
mb
20260506121505 81 0 0.0 0.0 0.00 0.00 0.00 30 1007.0
20260506120005 81 0 0.0 0.0 0.00 0.00 0.00 30 1007.0
20260506114505 79 0 0.0 0.0 0.00 0.00 0.00 31 1008.0
20260506113005 80 0 0.0 0.0 0.00 0.00 0.00 30 1008.0
20260506111505 79 0 0.0 0.0 0.00 0.00 0.00 31 1008.0
20260506110005 79 0 0.0 0.0 0.00 0.00 0.00 32 1008.0
20260506104505 79 0 0.0 0.0 0.00 0.00 0.00 31 1008.0
20260506103005 78 0 0.0 0.0 0.00 0.00 0.00 31 1008.0
20260506101505 78 0 0.0 0.0 0.00 0.00 0.00 31 1009.0
20260506100005 76 0 0.0 0.0 0.00 0.00 0.00 32 1009.0
20260506094505 76 0 0.0 0.0 0.00 0.00 0.00 34 1009.0
20260506093005 76 0 0.0 0.0 0.00 0.00 0.00 33 1009.0
20260506091505 76 0 0.0 0.0 0.00 0.00 0.00 34 1008.0
20260506090005 76 0 0.0 0.0 0.00 0.00 0.00 34 1009.0
20260506084505 75 0 0.0 0.0 0.00 0.00 0.00 33 1009.0
20260506083005 75 0 0.0 0.0 0.00 0.00 0.00 34 1009.0
20260506081506 73 0 0.0 0.0 0.00 0.00 0.00 34 1009.0
20260506073005 71 0 0.0 0.0 0.00 0.00 0.00 38 1009.0
20260506071505 72 0 0.0 0.0 0.00 0.00 0.00 38 1009.0
20260506061505 68 0 0.0 0.0 0.00 0.00 0.00 48 1009.0
20260506044505 64 0 0.0 0.0 0.00 0.00 0.00 52 1010.0
20260506043005 64 0 0.0 0.0 0.00 0.00 0.00 52 1010.0
20260506041505 64 0 0.0 0.0 0.00 0.00 0.00 52 1010.0
20260506040005 65 0 0.0 0.0 0.00 0.00 0.00 52 1010.0
20260506034505 64 0 0.0 0.0 0.00 0.00 0.00 52 1010.0
20260506033005 65 0 0.0 0.0 0.00 0.00 0.00 51 1010.0
20260506031505 65 0 0.0 0.0 0.00 0.00 0.00 51 1010.0
20260506030005 65 0 0.0 0.0 0.00 0.00 0.00 51 1010.0
20260506024505 65 0 0.0 0.0 0.00 0.00 0.00 51 1011.0
20260506023005 65 0 0.0 0.0 0.00 0.00 0.00 51 1011.0
20260506021505 65 0 0.0 0.0 0.00 0.00 0.00 51 1010.0
20260506020005 64 0 0.0 0.0 0.00 0.00 0.00 51 1010.0
20260506014505 65 0 0.0 0.0 0.00 0.00 0.00 52 1011.0
20260506013005 65 0 0.0 0.0 0.00 0.00 0.00 50 1011.0
20260506011505 65 0 0.0 0.0 0.00 0.00 0.00 51 1011.0
20260506010005 65 0 0.0 0.0 0.00 0.00 0.00 52 1011.0
20260506004505 66 0 0.0 0.0 0.00 0.00 0.00 52 1011.0
20260506003005 66 0 0.0 0.0 0.00 0.00 0.00 52 1011.0
20260506001505 66 0 0.0 0.0 0.00 0.00 0.00 52 1011.0
20260506000005 67 0 0.0 0.0 0.00 0.00 0.00 51 1011.0
20260505234505 67 0 0.0 0.0 0.00 0.00 0.00 51 1011.0
20260505233005 68 0 0.0 0.0 0.00 0.00 0.00 50 1011.0
20260505231505 68 0 0.0 0.0 0.00 0.00 0.00 51 1011.0
20260505230005 68 0 0.0 0.0 0.00 0.00 0.00 52 1011.0
20260505214505 69 0 0.0 0.0 0.00 0.00 0.00 53 1012.0
20260505213005 69 0 0.0 0.0 0.00 0.00 0.00 52 1012.0
20260505211505 70 0 0.0 0.0 0.00 0.00 0.00 50 1012.0
20260505210006 71 0 0.0 0.0 0.00 0.00 0.00 49 1012.0
20260505204505 70 0 0.0 0.0 0.00 0.00 0.00 49 1011.0
20260505203005 71 0 0.0 0.0 0.00 0.00 0.00 47 1011.0
20260505201505 72 0 0.0 0.0 0.00 0.00 0.00 44 1011.0
20260505200005 72 0 0.0 0.0 0.00 0.00 0.00 41 1011.0
20260505194505 72 0 0.0 0.0 0.00 0.00 0.00 40 1010.0
20260505193005 73 0 0.0 0.0 0.00 0.00 0.00 39 1010.0
20260505191505 74 0 0.0 0.0 0.00 0.00 0.00 38 1009.0
20260505190005 74 0 0.0 0.0 0.00 0.00 0.00 37 1009.0
20260505184505 74 0 0.0 0.0 0.00 0.00 0.00 37 1009.0
20260505183005 74 0 0.0 0.0 0.00 0.00 0.00 36 1009.0
20260505181505 75 0 0.0 0.0 0.00 0.00 0.00 35 1009.0
20260505180005 74 0 0.0 0.0 0.00 0.00 0.00 36 1009.0
20260505174505 75 0 0.0 0.0 0.00 0.00 0.00 34 1009.0
20260505173005 76 0 0.0 0.0 0.00 0.00 0.00 32 1009.0
20260505171505 77 0 0.0 0.0 0.00 0.00 0.00 33 1009.0
20260505170011 78 0 0.0 0.0 0.00 0.00 0.00 33 1009.0
20260505164505 79 0 0.0 0.0 0.00 0.00 0.00 33 1009.0
20260505163005 79 0 0.0 0.0 0.00 0.00 0.00 35 1009.0
20260505161505 82 0 0.0 0.0 0.00 0.00 0.00 34 1009.0
20260505153005 78 0 0.0 0.0 0.00 0.00 0.00 37 1009.0
20260505151505 79 0 0.0 0.0 0.00 0.00 0.00 37 1009.0
20260505124505 84 0 0.0 0.0 0.00 0.00 0.00 22 1008.0
20260505123005 85 0 0.0 0.0 0.00 0.00 0.00 21 1009.0